Location: Unspecified
(0.0000°N, 0.0000°E)
Time: 06:13:41
(UTC+00:00)

Hubble Space Telescope - Pass Details

Date: 25 November 2020
Orbit: 536 x 540 km, 28.5° (Epoch: 03 December)

Event Time Altitude Azimuth Distance (km) Brightness Sun altitude
Exits shadow 04:09:36 12° 20° (NNE) 1,669 3.2 -22.7°
Maximum altitude 04:10:05 12° 27° (NNE) 1,658 3.3 -22.6°
Drops below altitude 10° 04:11:41 10° 50° (NE) 1,779 3.7 -22.2°
Sets 04:15:16 0° 82° (E) 2,673 5.3 -21.4°
